Wind_Speed
34 33 31 29 27 26 24 23 22 21 21 21 21 19 18 18 18 19 20 20 20 20 20 19 19 20 20 21 21 22 23 24 25 25 25 26 26 26 27 27 27 28 28 29 30 30 30 30 31 32 32 33 34 35 37 38 39 39 40 40 41 42 42 42 43 43 43 42 40 38 34 31 29 27 24 21 19 19 19 18 20 22 23 25 27
36 34 33 31 30 28 27 26 25 25 25 24 23 22 21 21 22 22 23 23 24 23 23 23 23 23 23 23 24 24 25 26 26 27 26 27 28 27 27 28 29 30 30 31 32 32 32 33 33 34 35 35 36 37 38 40 41 41 42 42 43 43 44 44 44 44 44 43 42 39 35 32 30 28 25 22 21 21 21 20 20 21 22 24 26
36 35 34 34 32 31 30 30 29 28 28 27 26 25 25 24 25 25 26 26 26 25 25 25 25 25 25 25 25 26 26 26 27 28 28 28 29 29 29 29 30 32 32 33 33 34 35 35 35 36 37 38 39 40 41 42 42 44 44 45 45 45 45 45 45 45 46 45 43 40 36 33 31 29 26 23 22 22 23 22 20 21 22 23 25
35 35 35 34 34 33 33 33 32 31 30 29 28 27 26 27 27 28 28 28 27 27 27 26 26 26 26 26 27 26 26 27 28 29 30 30 30 31 31 31 31 33 34 35 35 36 37 38 38 39 40 41 42 43 43 44 45 46 47 48 48 48 47 47 47 47 47 46 44 40 36 33 31 29 27 24 23 23 24 23 21 21 23 24 25
35 34 33 33 33 33 33 33 33 32 31 30 28 28 28 29 29 29 29 29 29 29 28 28 28 28 28 28 27 27 27 28 29 30 31 32 32 33 33 33 33 34 35 37 38 38 39 40 40 41 42 43 44 45 46 47 48 48 49 50 51 51 50 50 49 48 47 47 45 41 36 33 31 29 27 24 23 24 25 24 22 21 23 24 27
36 35 33 32 32 32 33 33 32 31 31 30 29 29 30 31 31 31 30 30 30 30 30 30 30 29 28 28 28 28 29 30 31 32 33 34 34 34 35 35 35 35 36 38 39 40 41 42 43 44 45 46 47 48 49 49 50 51 52 53 53 53 53 52 52 50 48 46 44 40 36 33 31 30 27 24 23 24 25 24 23 23 23 25 28
37 36 35 34 34 33 33 33 32 31 31 31 30 31 32 33 33 32 32 32 32 32 31 31 31 30 29 29 29 30 31 32 33 34 35 36 35 35 35 36 37 38 38 39 40 42 43 44 46 47 48 49 50 51 52 52 53 54 55 55 56 55 55 55 54 52 48 45 42 39 35 32 31 30 28 25 24 25 25 25 23 23 24 26 29
38 37 36 36 36 36 35 34 33 32 32 32 32 33 33 34 34 33 33 33 32 33 32 32 32 31 30 30 31 32 33 34 35 36 36 36 36 36 36 38 39 40 41 41 42 44 45 47 48 50 51 52 53 54 55 55 56 57 57 58 58 57 57 56 54 52 48 43 39 37 34 31 30 30 28 26 25 26 26 26 24 24 26 28 30
40 38 38 38 38 37 36 35 34 34 34 34 34 33 34 34 34 34 34 33 33 33 33 33 32 32 32 32 33 34 36 36 36 36 36 37 37 38 38 39 41 42 43 44 45 46 48 49 51 52 54 55 56 57 58 59 60 60 60 60 60 59 58 55 52 50 45 40 36 34 32 30 29 29 28 26 26 27 27 26 24 24 26 29 31
41 40 39 39 38 37 36 35 35 36 36 36 35 34 34 35 35 35 34 34 34 34 34 34 34 33 34 35 36 36 37 37 37 37 38 38 39 40 41 42 43 44 45 47 48 49 51 52 54 55 57 58 59 60 61 62 63 64 64 62 60 58 55 51 48 46 42 37 33 32 30 28 27 27 27 25 26 26 26 25 24 24 26 28 31
42 41 40 39 39 38 37 37 37 37 38 37 36 35 35 36 36 36 36 35 35 35 36 35 35 35 36 36 37 38 38 38 39 39 40 41 41 43 44 45 46 47 48 50 51 52 53 55 56 58 60 61 63 64 64 65 65 65 63 59 55 52 49 45 43 41 38 35 32 30 29 27 25 25 25 25 25 25 24 23 23 23 25 27 30
42 42 41 40 39 39 39 38 38 39 39 38 37 36 37 38 38 38 37 36 36 36 36 36 36 37 37 38 39 39 40 41 42 42 43 43 44 45 47 48 49 50 51 53 54 56 57 58 60 61 63 64 65 65 65 64 63 60 55 51 49 47 44 41 38 37 35 33 31 30 29 26 24 22 23 24 24 23 22 22 23 23 25 27 28
42 42 42 41 40 40 40 39 39 40 40 39 38 38 38 39 38 37 37 37 36 37 37 37 38 39 40 41 41 42 43 44 44 45 45 46 46 48 49 51 52 54 55 57 58 59 60 61 62 63 64 64 63 63 61 59 56 52 48 45 43 43 41 38 35 32 31 31 30 29 27 24 22 21 23 24 23 23 23 23 24 24 26 29 31
43 42 42 42 41 41 41 41 41 41 41 41 40 39 38 38 38 37 37 37 38 38 39 40 40 42 42 43 44 45 46 47 47 48 48 49 50 51 52 54 56 57 59 61 62 63 63 63 63 62 60 59 58 57 55 53 51 48 45 42 40 39 39 38 33 28 27 27 26 26 25 22 20 21 23 24 23 23 24 26 26 27 29 32 34
43 43 42 42 42 42 42 41 41 42 42 41 40 40 39 38 38 38 39 39 40 41 42 42 43 44 45 45 47 48 48 49 51 51 52 53 53 54 56 57 58 60 62 63 64 63 62 60 59 57 54 52 51 52 52 51 50 47 44 41 37 35 36 37 33 26 23 23 23 24 25 23 21 22 24 24 23 24 26 28 29 30 32 35 37
42 43 42 42 42 42 41 41 41 41 41 40 40 40 40 40 40 41 41 42 43 43 44 44 45 46 47 47 49 50 52 53 54 55 56 56 56 57 59 59 60 61 61 60 59 57 55 54 52 51 49 48 48 49 50 50 49 48 45 41 35 31 31 35 32 25 20 20 21 23 25 25 24 25 25 24 24 25 27 30 31 32 34 36 39
42 43 43 43 43 42 41 40 41 41 41 41 41 41 42 42 43 43 44 44 44 45 46 46 47 48 49 50 52 54 55 56 57 59 59 60 60 59 59 58 57 55 54 53 52 50 49 49 48 47 47 47 47 46 46 47 48 48 46 41 33 28 29 31 28 23 19 17 19 21 23 25 27 28 27 25 25 27 29 31 32 33 35 38 41
44 44 45 45 43 43 42 42 43 43 43 43 44 44 44 45 45 45 46 46 47 48 48 49 50 52 53 54 56 57 58 59 60 60 60 60 58 56 54 52 50 49 48 48 47 47 47 47 48 47 46 47 47 46 45 46 46 46 46 42 32 26 28 28 24 21 18 17 19 23 25 27 28 29 28 28 28 30 31 32 34 35 37 40 44
46 46 48 46 44 44 45 45 45 46 46 46 46 47 47 47 48 48 49 50 50 51 52 54 55 56 56 57 58 58 58 57 56 56 55 54 52 51 49 48 47 46 46 46 46 46 46 46 47 47 46 46 46 46 46 46 45 43 43 41 33 26 26 26 21 18 18 18 22 27 30 31 30 28 28 30 33 34 34 34 35 36 38 41 45
48 48 49 48 46 47 47 48 48 48 48 49 49 49 50 50 51 52 52 53 54 55 56 56 56 56 56 55 54 53 52 51 50 49 48 48 48 47 46 46 46 45 44 45 45 46 46 45 45 45 45 45 45 45 45 45 44 41 40 39 33 27 24 24 21 18 18 21 25 29 33 34 32 29 28 30 34 36 35 36 37 38 40 43 45
51 51 51 50 50 50 50 51 51 51 52 52 52 53 53 54 54 55 55 55 55 55 54 53 52 51 50 49 48 47 46 45 45 46 45 45 44 44 44 44 44 43 43 44 45 45 45 45 45 45 44 43 43 44 45 45 43 40 39 37 31 25 22 21 20 18 19 24 28 30 32 34 33 31 30 30 34 36 37 39 39 39 41 43 46
54 54 53 53 53 53 53 53 53 54 54 54 55 55 55 55 54 54 53 52 50 49 48 47 46 45 44 44 44 43 43 43 43 43 43 43 43 43 43 44 44 43 43 44 45 46 46 45 45 46 44 42 41 41 42 44 43 41 40 37 31 25 21 18 18 19 21 27 33 36 36 36 35 34 32 32 34 35 38 40 41 41 42 44 46
55 54 53 53 53 53 53 53 53 53 52 52 52 51 50 49 48 47 46 45 44 43 43 42 42 42 42 42 42 42 42 42 42 43 43 43 43 44 44 45 46 45 45 46 47 48 48 48 47 46 45 43 41 39 40 42 43 43 42 39 33 28 24 21 20 22 26 34 41 43 42 41 39 37 36 35 35 36 38 40 42 44 46 46 47
52 51 50 48 48 48 48 48 47 46 46 45 45 44 43 43 43 42 42 41 41 41 41 41 41 41 41 41 41 42 42 42 42 42 43 44 44 46 47 48 49 48 47 48 50 50 51 51 50 49 46 44 42 40 40 41 43 43 42 41 37 33 31 30 27 28 33 43 48 46 45 44 41 40 39 38 38 39 40 40 41 45 48 47 48
45 45 44 43 43 43 42 42 41 41 40 40 40 40 40 40 40 40 40 39 40 40 40 40 40 40 40 40 41 41 42 43 43 42 42 44 46 48 49 50 51 51 50 50 51 52 51 52 52 51 49 46 44 42 41 42 44 43 43 43 41 38 39 39 36 36 41 46 44 41 41 42 41 40 42 43 42 44 46 46 44 45 46 45 46
41 41 41 40 40 40 40 40 39 39 38 38 38 38 38 38 38 38 38 38 38 39 39 39 39 40 41 41 42 43 44 45 45 44 43 45 48 49 50 52 53 53 52 51 52 53 52 52 53 52 51 49 47 45 43 43 44 45 44 44 43 43 44 44 43 43 43 41 36 34 36 38 39 40 45 47 46 46 51 52 50 47 43 41 43
40 40 40 39 39 38 38 38 38 38 37 37 36 36 37 37 38 38 38 39 40 40 40 41 41 42 43 44 45 46 47 48 48 48 47 48 49 51 52 54 55 55 55 54 54 54 54 54 54 54 53 52 50 49 47 45 45 46 46 45 43 45 46 46 46 44 39 34 32 32 33 35 39 41 44 46 46 48 51 52 52 50 44 40 43
40 39 39 38 38 38 38 38 38 38 37 36 37 38 39 39 39 40 41 42 43 43 43 44 45 45 46 47 48 49 50 50 51 51 50 50 51 53 54 56 57 57 58 58 57 57 57 56 56 56 55 54 53 52 51 48 47 46 46 44 43 44 46 48 48 42 35 32 32 32 33 37 42 44 45 45 43 45 47 47 49 51 47 43 44
40 39 39 39 40 40 40 40 40 40 39 39 41 42 42 42 42 43 44 45 46 46 47 48 48 49 49 50 51 51 52 52 52 52 53 53 53 55 56 57 58 60 60 61 60 60 61 61 60 59 58 57 56 55 55 53 50 47 46 45 44 44 45 47 47 42 35 31 32 33 35 41 44 45 45 44 42 41 42 44 46 48 48 47 47
41 41 42 42 43 43 43 43 43 42 43 44 45 46 45 45 46 46 47 48 49 50 50 51 52 52 53 53 53 54 54 54 55 55 55 55 56 56 57 58 59 61 62 63 63 63 65 65 64 63 63 61 59 58 58 58 53 48 47 46 45 45 44 44 45 42 37 36 38 39 41 45 47 45 44 44 42 41 42 45 47 48 48 49 49
44 45 45 45 46 47 47 47 46 46 47 49 49 49 49 49 49 49 50 51 52 53 54 54 54 55 55 55 56 56 57 57 58 58 59 59 59 59 59 60 61 62 63 64 64 66 68 68 67 67 66 65 61 59 60 60 56 51 47 46 46 45 44 43 42 39 38 39 41 42 43 46 50 50 47 45 42 42 46 51 53 51 48 48 50
48 48 48 49 49 50 50 51 50 51 51 52 52 52 52 52 53 53 53 54 55 56 56 56 56 57 57 58 58 58 59 60 61 61 62 62 63 63 63 64 65 65 66 67 67 69 70 70 69 68 67 65 63 61 60 59 55 50 47 46 45 45 45 45 43 41 41 43 42 43 47 50 51 54 54 51 48 51 56 59 56 53 50 49 51
52 52 52 52 53 54 54 55 55 55 55 55 55 55 55 55 56 56 56 57 57 58 58 58 58 59 60 60 61 61 62 63 63 64 65 65 66 67 68 69 70 71 71 70 70 70 70 70 70 68 65 62 60 60 61 58 53 48 47 47 46 45 46 46 43 43 48 55 59 61 61 59 57 58 58 58 57 59 61 60 55 53 54 55 56
55 55 55 56 56 57 58 58 58 58 58 58 58 58 58 58 58 58 59 59 60 60 60 61 61 62 62 63 63 64 65 66 67 67 68 68 68 70 71 73 74 74 72 70 68 68 68 69 69 67 64 59 57 58 58 55 52 49 47 47 46 46 45 45 45 46 52 62 67 64 60 60 60 60 60 63 64 61 58 57 56 55 57 59 58
58 58 58 58 59 59 60 60 60 60 60 60 60 60 60 60 61 61 61 62 62 62 63 63 63 64 65 65 66 67 68 69 69 70 70 69 70 71 72 73 74 73 70 67 65 65 66 68 68 67 62 57 55 56 54 50 48 47 46 47 48 48 47 47 46 45 51 61 60 49 49 54 55 55 58 62 64 61 60 62 61 60 61 62 61
59 60 60 61 61 61 62 62 62 62 62 62 62 62 62 63 63 64 64 65 65 65 65 65 66 67 67 68 68 69 70 70 70 70 70 70 69 69 69 69 69 68 66 65 63 63 64 66 67 65 60 55 54 54 50 45 44 44 45 46 48 48 49 49 46 43 49 57 55 45 49 55 52 52 58 61 59 58 61 63 62 62 63 64 63
62 62 63 63 63 63 64 64 64 64 64 64 65 65 65 65 66 67 67 68 68 68 68 68 69 69 70 70 71 72 72 72 71 71 71 69 67 65 63 62 63 64 63 62 62 61 63 66 67 63 56 53 54 53 48 42 41 42 45 47 48 49 50 48 45 41 40 43 45 45 52 56 54 54 59 59 57 57 58 59 61 63 63 64 65
65 65 65 66 66 66 66 66 66 66 67 67 67 68 68 69 69 70 70 71 71 71 71 71 71 72 72 73 73 73 73 73 72 72 70 67 64 61 58 58 60 61 61 60 60 61 63 66 67 63 54 50 52 51 46 40 37 36 36 38 41 44 45 45 43 37 31 30 33 41 49 55 58 60 61 60 59 57 57 59 63 66 66 66 67
68 68 68 69 69 69 69 69 69 69 70 70 71 71 72 72 73 73 74 74 74 74 74 74 74 74 74 74 74 74 74 73 73 71 68 64 62 60 59 60 63 64 64 63 63 64 65 65 66 63 55 50 50 49 44 38 34 29 25 26 30 33 36 37 37 32 28 26 29 39 48 53 53 53 57 61 61 58 59 63 67 70 70 69 67
72 72 72 72 72 73 73 72 73 73 73 74 74 75 75 76 76 76 76 76 77 77 77 77 77 77 76 75 76 75 75 75 73 70 67 64 63 62 63 66 68 69 69 68 67 67 67 65 64 63 58 53 51 47 40 36 32 25 19 23 27 26 26 28 30 29 28 29 32 38 44 44 41 43 53 62 62 60 63 67 69 71 72 70 68
75 74 75 75 75 75 76 76 76 76 76 77 78 78 78 79 78 79 79 79 79 79 79 78 78 78 78 78 78 77 77 75 73 70 68 66 66 66 68 70 72 73 74 73 70 68 69 68 64 61 57 54 51 45 39 37 34 28 24 26 28 25 22 23 26 26 26 29 34 37 36 35 40 51 63 68 66 64 67 69 70 70 70 69 68
76 76 77 77 77 77 77 77 78 78 79 80 80 81 81 81 81 81 81 81 80 80 80 80 79 79 80 80 79 78 77 75 74 72 71 69 69 71 72 74 76 77 76 73 69 67 68 68 65 61 56 52 50 45 39 38 38 35 31 29 27 25 24 23 23 25 28 32 37 42 40 41 51 64 73 75 72 69 67 67 68 69 69 69 68
78 78 78 79 79 79 79 79 80 81 81 82 82 83 83 83 83 83 83 82 81 81 81 81 81 81 82 82 80 79 78 76 75 74 74 73 74 75 76 77 79 79 74 69 65 64 64 64 63 61 57 52 49 45 41 41 41 39 36 33 28 22 20 21 24 31 40 44 45 46 47 49 58 68 76 80 78 72 68 67 68 69 70 71 70
80 80 81 81 81 81 81 82 82 83 83 84 85 86 86 85 85 84 84 83 83 83 83 83 83 84 83 83 82 80 79 78 77 76 76 77 77 78 79 81 81 76 69 63 61 60 60 60 59 59 57 53 49 46 44 45 47 44 43 44 38 27 21 23 31 41 51 54 53 52 54 57 62 68 74 77 77 74 72 71 71 71 71 71 70
83 83 84 84 83 83 83 84 84 85 85 86 87 88 88 87 87 86 86 85 85 85 85 84 83 83 84 83 82 81 80 79 78 78 79 80 80 81 83 84 80 72 64 60 58 56 56 57 56 56 55 53 49 47 46 48 50 47 45 46 44 37 34 37 41 47 54 59 60 60 62 65 67 71 74 77 78 78 77 75 73 72 71 70 70
85 86 86 85 85 85 86 86 86 87 88 88 89 89 89 90 89 89 88 88 87 87 86 84 83 83 83 83 82 81 80 79 79 80 81 82 84 87 88 85 77 68 62 60 59 56 54 54 53 52 52 51 49 47 48 48 50 51 48 46 46 46 48 49 51 54 58 63 66 68 70 73 74 75 76 77 77 77 76 75 73 71 71 71 71
87 87 87 87 86 87 88 88 89 89 89 90 90 91 91 91 91 90 89 88 86 84 83 81 81 81 82 82 82 82 81 81 81 82 84 86 88 89 89 85 78 71 66 62 59 56 53 52 51 50 49 48 48 48 48 48 49 51 53 53 53 54 56 54 53 54 58 63 67 71 74 75 74 74 74 75 76 75 74 72 72 71 71 72 72
88 88 88 89 89 89 90 90 89 90 90 91 91 92 92 92 90 88 86 85 83 81 79 79 79 80 81 82 83 83 82 83 84 85 87 88 88 88 88 86 81 76 71 66 60 55 51 50 50 50 48 46 46 47 49 50 50 52 56 60 61 62 63 62 61 59 59 60 63 67 71 73 74 75 75 75 75 74 73 72 72 73 73 74 74
89 89 89 89 90 90 90 90 90 91 91 92 92 92 91 90 87 85 84 83 82 82 82 82 83 83 83 84 85 85 85 87 88 88 87 87 87 87 88 87 85 82 77 71 63 56 51 49 49 50 48 46 45 46 48 51 53 55 59 64 68 70 71 71 71 69 67 66 65 66 69 72 74 75 75 75 75 75 75 75 75 75 75 76 76
88 87 85 84 84 84 84 85 86 87 88 89 88 88 88 88 88 87 87 86 86 87 88 88 88 87 87 87 87 88 88 88 88 87 86 86 86 87 89 89 88 86 83 77 68 59 52 49 48 48 49 49 48 47 48 50 53 56 59 64 70 74 77 78 77 77 76 75 73 71 70 71 73 74 76 76 77 78 78 79 79 79 79 79 80
88 86 84 82 80 78 77 76 77 78 79 81 83 84 86 88 89 89 89 89 89 89 89 89 89 88 88 87 87 87 87 86 85 85 85 86 87 89 91 91 91 90 88 83 76 66 58 52 49 48 51 54 54 53 51 51 53 56 59 63 67 72 76 78 80 80 80 80 79 76 74 73 74 75 76 77 78 79 79 80 80 81 81 82 83
Wind_Direction
213 215 218 219 220 222 224 227 230 233 237 240 242 245 249 254 260 264 266 269 273 275 277 280 284 287 291 294 297 300 302 304 305 307 310 312 314 315 314 313 315 316 317 318 320 323 325 325 325 325 326 327 327 327 328 328 329 330 332 333 335 336 338 339 340 341 341 342 343 341 338 333 328 324 323 319 311 306 311 326 338 345 351 357 359
215 216 218 221 222 224 226 228 231 235 239 244 247 250 255 259 262 264 266 268 270 272 276 279 282 284 287 291 294 297 299 301 302 304 307 308 310 311 312 311 311 313 314 316 317 320 321 322 322 322 322 323 323 323 324 324 325 326 327 329 331 332 333 335 336 337 337 338 339 338 335 332 327 323 320 316 311 305 301 307 323 333 341 346 349
218 218 220 223 224 226 228 229 231 235 239 243 248 252 255 258 261 264 265 266 267 269 272 274 277 281 284 288 291 293 296 298 300 302 303 305 306 307 308 308 309 310 312 314 315 317 318 318 319 318 319 319 319 319 320 321 322 323 324 326 327 329 330 331 332 333 333 334 335 334 332 328 325 322 319 314 309 306 300 297 306 320 331 337 341
220 221 223 226 227 229 230 232 234 236 240 243 247 251 254 257 260 261 263 265 266 268 269 271 275 278 282 285 288 290 293 296 298 299 301 302 303 304 305 305 306 308 310 312 313 314 314 314 315 315 315 315 316 316 317 318 319 320 321 323 324 326 327 327 328 329 330 330 330 330 328 324 322 320 318 312 307 305 302 296 296 308 322 330 334
221 223 226 228 231 232 234 235 237 239 242 245 247 250 254 257 259 261 263 265 266 267 269 271 274 277 280 283 286 289 292 294 295 297 299 300 301 302 303 304 305 307 308 310 310 311 311 311 312 312 312 313 313 314 315 316 317 318 319 320 321 322 323 324 324 325 327 327 326 326 324 320 318 317 316 312 306 304 304 298 292 298 313 323 329
223 224 227 229 231 233 235 237 239 242 244 246 248 251 254 256 258 260 262 264 266 267 269 271 273 276 279 282 285 288 290 292 294 296 298 299 300 301 302 304 305 306 306 307 307 308 308 309 309 309 310 311 311 312 313 314 315 315 316 317 318 320 320 320 321 322 323 324 323 322 320 317 314 314 313 310 306 304 304 301 293 293 304 317 325
224 225 227 229 231 232 234 238 241 244 247 249 250 252 254 256 257 259 261 263 266 268 269 271 274 277 280 282 285 287 289 291 294 296 298 298 299 300 301 303 303 304 304 304 304 305 305 306 306 307 308 309 310 310 311 312 312 313 314 314 315 317 317 317 318 319 320 321 319 318 316 313 311 311 312 310 307 306 305 302 296 294 302 312 321
225 226 228 231 233 234 237 240 243 246 249 251 252 253 255 257 258 260 262 264 266 268 271 273 276 279 282 284 286 288 291 293 295 296 297 297 298 299 300 300 301 301 301 301 302 302 303 303 304 305 306 307 308 308 309 309 310 310 311 312 313 314 314 314 315 316 317 317 316 313 311 310 308 308 310 309 307 305 304 303 299 298 304 311 318
227 228 229 232 234 236 238 241 243 246 249 251 252 254 256 258 261 262 264 266 267 270 272 275 278 280 283 285 287 290 292 294 295 295 295 296 296 297 297 297 298 298 299 299 300 301 301 302 303 304 305 305 306 306 307 307 308 308 309 310 311 311 312 313 313 313 314 314 311 308 306 306 306 305 307 307 303 301 301 301 300 302 307 312 317
228 229 230 232 235 237 238 240 243 246 248 249 251 254 256 259 261 262 264 266 268 270 273 276 278 281 283 286 288 290 291 292 292 293 293 293 293 294 294 295 295 296 297 298 299 300 301 301 302 303 303 303 304 304 305 306 306 307 308 309 310 310 310 311 311 311 310 310 307 304 302 302 303 302 302 302 298 297 298 299 302 306 311 314 317
229 230 231 233 235 238 238 240 242 245 247 249 251 253 256 258 260 261 263 265 267 270 273 276 279 281 284 286 287 288 289 289 289 289 290 291 291 292 293 294 294 295 296 297 298 298 299 300 301 301 302 302 303 304 304 305 305 306 308 310 310 310 310 310 309 308 307 306 303 300 299 300 299 297 296 294 292 291 294 297 302 310 317 318 319
230 232 233 234 235 238 239 241 243 245 248 250 251 253 255 257 259 261 263 266 268 271 274 277 280 282 283 284 284 284 284 285 286 287 288 290 291 292 292 293 294 295 296 296 296 297 298 299 300 300 301 302 302 303 303 304 304 306 309 311 311 310 309 308 306 305 304 303 300 297 297 297 295 290 288 287 286 287 290 295 301 310 319 322 322
231 233 235 236 237 239 241 243 245 247 250 252 253 254 256 258 260 262 265 268 270 273 275 276 277 278 279 280 281 281 282 284 286 287 289 289 290 291 292 293 294 295 295 296 296 297 297 298 299 300 300 301 301 302 302 303 305 308 311 312 311 309 308 305 303 304 303 301 299 298 297 295 290 285 283 282 282 285 290 296 302 309 318 322 324
234 236 238 240 241 242 243 244 247 249 251 253 255 256 257 259 261 264 266 268 270 271 272 273 275 276 278 279 281 282 284 285 286 287 288 288 289 290 291 293 294 294 295 295 295 296 297 298 299 299 300 300 301 302 303 304 306 309 311 311 310 307 305 302 302 303 302 299 299 300 298 294 287 282 282 282 283 285 292 299 303 309 317 320 323
238 239 240 242 244 244 246 247 248 251 252 254 256 258 260 262 264 266 267 268 269 270 272 274 276 277 279 281 282 283 284 285 285 286 287 287 289 290 291 292 292 293 293 294 295 296 297 297 298 298 299 300 302 303 305 307 308 308 309 309 307 304 302 299 299 303 301 298 300 300 298 296 289 284 284 285 285 288 295 300 304 310 315 318 322
239 241 242 243 246 246 247 249 250 252 254 256 258 260 262 263 265 266 267 268 270 272 274 275 277 279 280 281 282 283 283 284 284 285 286 287 288 289 289 290 291 291 292 293 295 296 296 297 297 298 300 301 302 303 305 306 306 306 307 307 305 303 296 292 294 301 302 300 302 302 300 299 293 287 285 285 286 292 298 301 305 310 313 317 321
241 243 243 244 246 248 249 251 253 255 256 258 260 261 262 263 264 266 268 269 271 273 274 276 278 279 279 280 281 281 282 283 284 285 286 286 287 288 289 289 290 291 292 293 295 296 297 297 297 299 300 301 300 301 302 303 304 305 306 307 307 301 289 284 287 293 298 305 307 306 306 304 297 290 285 284 287 293 298 301 305 308 312 317 322
241 244 246 246 248 251 253 254 255 256 258 259 261 262 263 264 266 268 269 271 272 274 275 276 277 278 279 279 280 281 282 283 284 285 286 286 287 287 288 289 289 290 291 293 295 296 297 298 298 299 300 299 300 301 302 302 303 304 305 306 307 296 282 280 283 285 294 308 312 312 315 312 304 294 285 283 287 293 296 298 302 306 310 316 321
243 245 248 249 250 253 255 256 257 258 259 261 262 264 265 267 269 270 271 272 274 275 276 277 277 278 279 280 280 281 282 283 284 285 286 287 288 289 289 290 290 291 293 294 295 295 295 296 297 298 298 299 300 301 302 301 302 303 303 304 305 295 281 280 281 283 296 310 311 314 317 316 310 301 289 284 286 292 295 295 297 303 309 315 318
245 247 249 251 252 253 255 257 259 260 262 263 264 266 267 269 270 271 272 273 274 275 276 277 278 278 278 279 280 280 282 283 284 285 286 287 289 290 292 293 293 294 295 294 293 292 292 293 294 296 297 299 300 300 300 300 301 302 302 300 299 294 288 285 283 287 304 313 311 312 314 314 312 307 297 290 289 291 291 292 295 302 309 313 316
248 250 251 252 253 255 257 258 260 261 263 264 265 267 268 269 270 271 272 273 274 274 275 276 277 278 278 279 280 280 281 283 284 285 286 288 289 291 292 293 293 294 293 293 292 292 292 293 293 293 294 297 300 301 300 299 298 299 298 295 293 292 290 287 286 291 302 308 308 307 307 307 307 306 303 298 295 293 289 290 295 302 307 312 315
250 251 252 254 255 257 258 260 261 262 263 264 266 267 268 269 270 270 271 272 273 273 274 275 276 277 278 279 280 281 282 283 284 286 287 289 290 292 292 292 292 292 292 293 293 293 293 294 293 293 294 296 298 299 299 297 297 296 294 291 289 286 282 281 286 289 293 300 302 300 297 296 296 297 300 301 300 297 292 289 291 298 304 308 311
252 253 254 255 257 258 259 260 261 263 263 264 265 266 267 268 269 269 270 271 272 272 273 274 275 276 277 278 280 282 283 285 286 288 290 292 293 294 294 294 294 294 295 296 296 295 295 295 294 295 296 296 297 297 296 295 296 295 292 288 285 278 271 269 273 275 285 299 300 293 289 289 288 288 293 299 301 299 296 292 290 292 298 304 306
252 253 255 256 257 258 259 260 261 262 263 264 265 266 267 268 269 269 270 270 271 272 273 273 274 276 278 280 282 284 286 287 289 291 294 296 297 297 296 296 297 298 298 299 298 298 298 298 297 297 298 297 296 295 293 292 292 292 290 287 283 275 267 266 265 267 283 298 298 290 285 286 285 283 289 298 300 296 295 294 292 291 295 300 304
251 252 254 255 256 257 258 259 259 260 262 263 264 266 267 268 268 269 270 271 272 273 273 275 277 279 282 284 286 287 288 289 291 294 297 297 296 296 297 297 298 299 300 300 299 299 299 299 299 299 300 299 296 294 292 289 288 289 288 287 283 276 271 269 265 269 285 296 295 289 285 284 283 285 291 298 300 296 294 294 294 294 296 298 301
249 251 252 253 254 255 257 257 258 259 260 260 262 264 265 267 268 269 271 273 274 276 278 280 283 284 286 287 288 289 290 291 293 296 298 296 296 296 297 297 297 298 300 300 300 301 302 302 301 300 300 299 297 295 293 290 289 289 289 288 285 280 277 273 268 273 286 293 291 291 288 284 286 291 296 299 298 294 293 294 294 295 295 295 298
247 249 250 252 253 254 256 258 259 260 260 261 263 265 267 269 271 273 275 277 278 280 283 285 286 286 287 288 289 290 292 293 295 297 299 298 298 298 297 297 297 298 299 299 300 302 304 305 304 303 301 300 298 296 294 291 289 288 289 289 286 282 280 275 270 274 283 286 287 291 290 287 290 295 299 302 298 290 291 295 295 293 293 291 293
245 248 250 252 254 257 259 261 262 263 264 266 268 269 270 272 275 277 279 280 282 284 285 286 286 287 287 288 288 290 291 292 294 296 298 299 298 298 297 297 298 298 298 299 301 303 303 304 303 302 301 300 298 296 294 291 287 285 285 287 288 285 281 276 273 274 278 280 284 289 289 290 297 300 303 304 297 288 292 297 295 292 290 286 288
247 250 253 256 258 260 262 263 264 265 267 269 269 271 273 276 278 280 281 281 282 283 284 284 285 285 286 287 288 289 290 292 294 295 297 298 298 298 298 298 298 298 298 299 301 302 302 301 301 301 301 300 299 297 295 292 288 284 283 284 286 285 283 281 280 280 277 275 278 283 287 294 301 306 308 305 293 287 294 298 297 296 290 282 285
252 254 257 259 261 262 263 264 266 267 268 268 269 271 274 277 278 279 280 280 280 281 281 282 282 284 285 286 288 289 291 293 294 296 296 297 297 297 297 297 298 298 298 299 300 300 299 299 299 299 299 298 298 296 294 292 289 286 285 286 286 284 280 279 280 282 283 282 278 277 282 292 298 303 309 307 295 287 292 297 300 301 294 284 287
254 256 258 259 262 263 265 266 267 267 268 268 270 272 273 275 276 277 278 278 279 280 280 281 282 284 285 287 288 290 292 293 294 295 295 296 296 297 297 297 298 298 298 299 299 298 297 297 297 297 296 295 295 293 291 290 288 286 286 286 285 283 278 275 274 276 282 286 282 277 282 292 294 293 298 302 296 289 294 299 302 301 296 289 289
255 256 258 259 261 263 264 266 266 267 268 269 270 271 272 273 275 276 277 278 279 280 281 283 284 285 287 288 290 291 292 292 293 293 294 295 296 297 298 298 298 298 298 298 298 298 297 296 296 294 293 293 292 291 289 287 287 287 288 287 284 279 275 272 271 272 277 281 281 281 286 291 290 286 286 290 290 288 293 300 301 298 295 291 289
256 257 259 260 261 263 264 265 266 267 268 269 270 271 272 273 275 276 278 279 280 281 282 284 286 287 289 290 291 292 292 292 293 293 294 296 297 299 299 299 299 298 298 298 298 298 297 296 296 294 293 291 290 289 288 287 288 290 292 291 288 282 278 275 273 272 273 273 272 275 281 284 283 283 285 289 290 288 292 297 297 293 291 289 287
258 259 260 260 262 263 264 265 266 267 268 269 270 271 273 274 276 278 278 279 280 282 284 285 287 289 290 291 292 292 293 293 294 295 297 298 300 300 300 299 299 298 299 300 299 298 297 296 296 295 293 290 288 286 285 286 288 290 291 290 289 287 285 282 279 274 269 265 266 274 285 288 283 280 284 291 293 291 288 288 287 285 285 285 285
259 260 261 262 262 264 265 266 267 268 269 270 271 272 273 275 277 278 278 280 281 283 285 287 288 290 291 291 292 293 293 294 295 297 298 299 300 300 300 299 298 299 300 300 299 298 298 298 297 296 293 290 286 284 283 284 285 286 287 287 285 283 281 279 279 279 271 262 261 275 298 301 289 279 281 289 293 289 283 280 281 283 285 285 285
260 261 262 263 264 265 267 268 269 269 270 271 272 273 274 276 277 278 279 281 282 284 286 287 289 290 291 291 292 292 293 295 296 297 298 299 300 300 299 299 300 300 301 300 299 298 300 301 300 298 295 289 285 284 284 283 282 282 283 282 280 278 276 274 275 277 270 257 252 268 292 295 288 280 279 282 285 283 279 278 281 285 287 286 285
261 262 263 265 266 267 268 268 269 270 271 272 273 274 275 276 277 279 280 282 283 285 286 287 289 289 290 291 292 292 294 295 296 297 298 300 300 300 300 302 303 303 300 298 297 298 301 302 302 301 295 288 285 284 283 283 283 281 281 279 276 276 275 273 272 274 267 250 247 263 277 280 279 281 281 281 281 281 278 277 281 285 286 285 284
262 263 265 266 267 268 268 269 270 270 271 273 274 275 276 277 278 280 281 282 284 285 286 287 288 289 290 291 291 292 293 294 295 297 299 299 299 299 300 303 306 305 300 297 296 299 301 302 303 301 294 284 281 282 281 280 280 278 276 280 282 283 281 276 271 265 252 243 257 273 274 272 276 284 287 285 283 281 279 278 280 284 285 285 284
263 264 265 266 267 268 269 269 270 271 272 274 275 276 277 278 279 280 281 282 283 284 285 286 287 288 289 290 290 291 293 294 295 297 298 297 297 296 297 300 304 305 301 297 296 299 302 303 303 302 294 282 278 279 278 275 273 270 276 291 298 296 290 282 273 260 242 242 268 278 269 264 270 280 282 280 278 276 275 276 278 281 283 284 284
263 264 265 266 267 268 269 270 271 272 273 274 275 276 277 278 279 280 281 282 283 284 285 286 287 288 289 289 290 291 292 293 294 295 295 294 293 294 296 298 302 303 302 299 296 296 299 300 300 299 294 286 279 276 275 273 267 262 271 290 293 292 287 278 271 264 252 248 259 265 261 260 267 272 272 272 272 271 271 274 277 280 282 282 283
262 263 264 265 267 268 269 270 271 272 273 274 275 276 277 278 278 279 280 281 283 284 285 286 287 288 288 289 290 291 292 293 293 294 293 292 292 293 296 298 300 302 302 301 297 295 295 297 297 295 291 285 278 273 270 270 269 263 263 271 273 272 270 262 254 250 245 243 250 258 259 259 260 261 261 263 267 269 270 273 276 279 280 281 282
261 263 264 265 267 268 269 270 271 272 273 274 275 276 276 277 278 279 280 281 283 284 285 286 287 288 288 289 290 291 291 292 292 292 291 291 291 293 295 297 299 301 302 301 298 296 294 294 294 292 287 279 273 268 262 260 263 262 260 257 255 255 255 251 244 243 245 248 254 257 253 246 246 248 250 254 261 268 272 274 276 278 279 280 280
262 263 264 266 267 268 269 270 271 272 273 274 275 275 276 276 278 279 280 281 283 284 284 285 286 287 287 288 289 289 289 289 290 290 289 289 290 292 294 296 299 302 302 301 299 297 294 291 290 289 286 277 268 262 254 248 251 258 258 251 243 241 245 247 248 249 250 251 253 252 247 241 240 242 245 249 256 265 272 274 276 277 277 277 277
262 264 265 266 267 268 269 270 271 272 273 274 274 275 276 277 278 279 280 281 282 283 284 285 285 285 286 286 287 287 288 288 289 289 289 290 291 292 294 297 301 304 304 303 300 297 294 290 287 286 285 280 268 258 250 244 245 254 259 252 242 230 224 232 240 241 239 239 237 236 236 238 239 242 246 252 259 266 271 273 275 275 275 274 274
262 263 265 266 267 268 269 270 271 272 273 273 274 275 276 277 278 279 280 281 281 282 283 283 283 283 284 285 286 287 288 288 289 290 291 292 293 294 296 299 304 307 307 307 305 300 294 290 286 284 284 282 271 258 249 245 245 247 248 244 235 222 211 214 223 227 229 230 230 229 232 238 242 246 251 256 261 265 268 270 272 272 272 272 272
262 263 264 265 266 267 268 269 270 271 272 273 274 275 276 277 278 279 280 280 281 282 282 282 281 282 283 284 285 286 286 288 289 290 291 292 294 296 299 302 305 307 307 309 310 306 298 292 288 285 284 283 276 262 251 246 246 243 237 231 224 214 208 210 215 220 224 228 230 233 238 242 245 250 254 258 261 264 266 268 269 270 270 272 273
261 262 263 265 265 266 267 268 269 270 271 272 274 274 275 277 278 279 279 280 281 282 282 282 282 282 283 283 284 285 285 286 288 289 291 293 295 298 301 303 304 306 307 310 311 310 304 297 293 290 286 284 280 270 258 250 246 240 232 225 218 211 211 218 227 232 235 237 238 240 243 244 248 254 259 262 263 265 266 267 268 269 270 272 273
262 263 264 265 265 266 267 268 269 270 271 272 273 274 275 276 277 278 279 280 281 281 282 282 283 283 283 283 283 284 285 286 287 289 291 294 297 299 300 302 303 305 308 310 311 311 308 302 298 296 293 288 283 276 265 256 249 240 231 226 223 219 221 228 236 241 245 248 247 246 248 251 256 261 264 264 265 265 266 267 268 269 270 271 273
263 264 265 266 267 267 267 267 268 269 269 270 272 273 274 275 275 276 277 278 279 280 281 282 283 283 282 282 283 284 285 287 289 291 293 296 297 298 299 301 303 305 307 309 310 309 307 303 299 298 297 294 289 281 271 263 255 246 237 231 229 229 232 236 239 243 248 252 253 253 253 255 258 262 263 264 264 265 265 266 267 268 269 271 272
264 264 265 266 267 267 267 267 267 267 268 269 270 272 273 274 275 276 277 277 278 279 280 281 282 282 282 282 283 285 288 289 291 293 295 295 296 296 297 298 301 303 305 308 309 307 304 301 299 298 298 299 296 289 280 271 264 257 249 241 237 237 239 242 245 247 250 255 258 258 257 256 257 258 260 261 261 262 264 265 266 267 269 270 271
262 263 264 265 266 266 266 267 267 266 267 268 269 271 272 274 276 277 278 278 279 280 281 282 283 283 284 285 286 288 289 291 292 293 293 293 293 294 295 297 299 301 303 306 308 307 304 302 300 298 298 300 300 298 293 284 275 268 262 256 250 247 247 248 251 254 257 260 262 264 263 262 261 261 261 262 263 264 265 267 268 269 271 272 274
Height
10977 10979 10981 10983 10985 10986 10988 10989 10990 10990 10991 10992 10993 10994 10995 10996 10997 10998 10998 10998 10998 10998 10999 10999 11000 11000 11000 11000 10999 10999 10999 10998 10997 10997 10997 10996 10995 10994 10993 10991 10991 10990 10989 10988 10987 10986 10985 10984 10983 10981 10980 10979 10977 10976 10974 10972 10970 10969 10967 10966 10963 10962 10960 10958 10956 10954 10952 10950 10948 10946 10943 10941 10939 10938 10937 10936 10935 10932 10930 10929 10927 10926 10924 10923 10921
10974 10976 10978 10980 10982 10983 10985 10986 10987 10988 10988 10989 10990 10991 10993 10994 10994 10995 10995 10995 10996 10996 10996 10996 10997 10997 10997 10997 10997 10997 10996 10996 10995 10994 10994 10994 10993 10992 10991 10989 10988 10987 10986 10985 10984 10983 10982 10981 10980 10978 10976 10975 10974 10972 10970 10968 10967 10965 10964 10962 10961 10959 10957 10956 10954 10952 10949 10948 10946 10943 10941 10939 10937 10935 10934 10933 10932 10930 10928 10926 10925 10924 10922 10920 10919
10973 10975 10976 10977 10979 10980 10982 10983 10984 10985 10985 10986 10988 10989 10990 10991 10991 10992 10992 10992 10993 10993 10994 10994 10994 10994 10994 10995 10994 10994 10994 10993 10992 10992 10992 10991 10990 10989 10989 10988 10986 10985 10983 10983 10981 10980 10979 10977 10976 10974 10973 10971 10970 10968 10966 10965 10963 10961 10960 10958 10957 10956 10954 10952 10950 10948 10946 10944 10942 10941 10938 10936 10934 10932 10931 10930 10929 10927 10925 10924 10922 10921 10919 10918 10916
10971 10973 10974 10975 10977 10978 10979 10980 10981 10982 10983 10984 10986 10987 10987 10988 10988 10989 10989 10989 10990 10990 10991 10991 10992 10992 10992 10992 10992 10991 10991 10991 10990 10989 10989 10989 10988 10987 10986 10985 10984 10982 10981 10979 10978 10977 10975 10973 10972 10971 10969 10967 10965 10964 10962 10960 10959 10957 10956 10954 10953 10952 10951 10949 10947 10945 10943 10940 10938 10937 10935 10932 10930 10929 10927 10926 10925 10924 10922 10920 10919 10917 10916 10914 10912
10968 10970 10972 10974 10975 10975 10976 10977 10978 10980 10981 10983 10984 10984 10985 10985 10985 10986 10986 10987 10987 10987 10988 10989 10989 10989 10989 10989 10989 10989 10988 10988 10987 10987 10986 10986 10985 10984 10983 10982 10981 10980 10978 10976 10975 10973 10972 10970 10968 10967 10965 10963 10961 10959 10958 10956 10954 10953 10952 10950 10948 10947 10946 10944 10943 10941 10939 10936 10933 10932 10930 10928 10926 10925 10924 10922 10921 10920 10918 10917 10915 10914 10912 10910 10908
10965 10967 10969 10970 10971 10972 10974 10975 10976 10978 10979 10980 10981 10982 10982 10982 10982 10983 10983 10984 10984 10984 10985 10986 10986 10986 10987 10986 10986 10986 10985 10985 10984 10984 10983 10983 10982 10981 10979 10978 10977 10977 10975 10974 10971 10969 10968 10966 10964 10963 10961 10959 10957 10956 10954 10952 10950 10948 10947 10946 10944 10943 10941 10939 10937 10936 10935 10932 10929 10927 10925 10923 10921 10920 10919 10918 10917 10916 10914 10913 10911 10910 10908 10906 10904
10961 10963 10965 10966 10967 10969 10970 10972 10974 10975 10976 10977 10978 10979 10979 10979 10980 10980 10981 10981 10981 10981 10982 10982 10983 10983 10984 10984 10983 10983 10983 10982 10982 10981 10980 10979 10978 10978 10976 10975 10974 10973 10971 10970 10968 10966 10964 10962 10960 10959 10957 10955 10953 10951 10949 10948 10946 10944 10942 10941 10940 10938 10936 10934 10932 10930 10929 10927 10924 10922 10920 10919 10917 10915 10914 10914 10912 10911 10909 10908 10907 10906 10904 10902 10900
10957 10960 10961 10962 10964 10965 10967 10969 10971 10972 10973 10974 10975 10976 10976 10976 10977 10977 10978 10978 10979 10979 10979 10979 10980 10980 10981 10981 10980 10979 10979 10979 10979 10978 10977 10976 10975 10974 10973 10971 10970 10968 10967 10966 10964 10963 10960 10958 10956 10954 10953 10951 10948 10946 10944 10943 10941 10940 10938 10936 10935 10933 10931 10929 10927 10924 10923 10921 10919 10917 10915 10914 10912 10910 10909 10908 10907 10906 10905 10903 10902 10901 10899 10897 10895
10953 10956 10958 10958 10960 10962 10964 10966 10967 10969 10969 10970 10971 10972 10973 10973 10973 10974 10975 10975 10976 10976 10976 10976 10977 10977 10977 10977 10977 10976 10975 10975 10975 10974 10973 10972 10971 10970 10969 10968 10966 10964 10963 10961 10960 10958 10956 10954 10952 10950 10948 10946 10943 10941 10939 10937 10936 10934 10933 10932 10930 10928 10925 10923 10921 10918 10917 10915 10913 10912 10910 10909 10908 10906 10905 10904 10902 10901 10900 10899 10898 10897 10895 10893 10891
10949 10952 10953 10955 10956 10958 10960 10962 10963 10964 10965 10965 10967 10968 10969 10969 10970 10970 10971 10972 10972 10973 10973 10973 10973 10974 10974 10973 10973 10972 10971 10971 10970 10969 10969 10968 10967 10966 10965 10964 10962 10960 10959 10957 10955 10954 10952 10950 10948 10945 10943 10940 10938 10936 10934 10932 10930 10928 10927 10926 10924 10922 10919 10918 10915 10912 10911 10909 10908 10906 10905 10904 10903 10902 10900 10899 10898 10897 10896 10895 10894 10893 10892 10889 10887
10945 10947 10949 10951 10953 10954 10956 10958 10959 10959 10960 10961 10963 10964 10965 10965 10966 10966 10967 10968 10969 10969 10969 10970 10970 10970 10970 10969 10968 10968 10967 10966 10965 10964 10964 10963 10962 10961 10960 10959 10958 10956 10954 10952 10951 10949 10947 10945 10943 10940 10937 10934 10932 10930 10928 10926 10923 10921 10921 10920 10918 10915 10913 10911 10909 10907 10905 10904 10902 10901 10900 10899 10898 10897 10896 10894 10893 10893 10892 10891 10889 10889 10888 10886 10883
10941 10942 10945 10947 10949 10950 10951 10953 10954 10955 10956 10957 10959 10961 10962 10962 10962 10963 10964 10965 10966 10966 10966 10967 10967 10966 10965 10965 10964 10963 10962 10961 10960 10960 10960 10959 10958 10957 10955 10954 10952 10951 10950 10947 10945 10943 10942 10940 10938 10935 10932 10929 10926 10924 10922 10920 10917 10916 10915 10914 10911 10908 10906 10905 10904 10902 10900 10899 10897 10896 10895 10894 10893 10892 10891 10890 10889 10888 10888 10887 10885 10884 10883 10882 10880
10936 10938 10941 10943 10945 10946 10948 10950 10951 10951 10952 10954 10955 10957 10958 10958 10959 10960 10961 10962 10963 10963 10963 10962 10962 10961 10960 10960 10959 10958 10957 10957 10956 10956 10955 10955 10954 10952 10950 10948 10947 10945 10944 10941 10939 10938 10936 10935 10933 10930 10927 10923 10920 10917 10915 10914 10912 10911 10910 10909 10906 10902 10900 10898 10897 10897 10896 10894 10893 10891 10890 10889 10888 10888 10887 10886 10885 10885 10884 10883 10882 10880 10879 10877 10876
10933 10935 10937 10939 10941 10943 10945 10946 10947 10948 10949 10950 10951 10953 10954 10955 10956 10957 10958 10958 10958 10958 10958 10957 10957 10957 10956 10956 10955 10953 10953 10953 10952 10951 10950 10950 10949 10948 10946 10944 10941 10939 10937 10935 10933 10932 10930 10928 10926 10924 10921 10918 10914 10911 10909 10908 10907 10907 10905 10904 10902 10898 10894 10891 10891 10892 10891 10890 10888 10887 10886 10885 10885 10884 10883 10882 10882 10882 10880 10879 10878 10876 10874 10872 10871
10930 10932 10934 10935 10937 10939 10941 10942 10944 10944 10945 10947 10947 10948 10950 10951 10952 10952 10953 10953 10953 10953 10953 10953 10953 10952 10952 10951 10950 10949 10948 10947 10946 10945 10945 10945 10944 10943 10942 10940 10937 10933 10931 10929 10927 10926 10924 10922 10920 10917 10915 10913 10909 10906 10903 10902 10901 10901 10900 10899 10897 10895 10891 10887 10885 10886 10887 10886 10885 10883 10882 10881 10881 10881 10880 10879 10879 10879 10877 10876 10874 10872 10870 10868 10866
10926 10927 10930 10931 10932 10934 10937 10938 10939 10940 10941 10942 10943 10944 10945 10946 10947 10947 10948 10948 10948 10948 10948 10949 10948 10948 10947 10947 10945 10944 10943 10942 10940 10939 10939 10939 10939 10938 10936 10934 10932 10928 10925 10923 10922 10920 10918 10917 10915 10912 10909 10908 10905 10903 10900 10898 10895 10894 10894 10893 10893 10891 10888 10883 10881 10882 10882 10882 10881 10880 10879 10878 10878 10877 10876 10876 10875 10874 10873 10872 10870 10868 10866 10864 10862
10921 10923 10925 10927 10928 10930 10932 10934 10934 10935 10936 10938 10938 10939 10940 10941 10942 10942 10943 10943 10943 10944 10944 10944 10944 10943 10942 10941 10940 10938 10937 10936 10935 10933 10933 10933 10933 10932 10930 10928 10926 10923 10921 10919 10918 10915 10913 10911 10909 10908 10905 10902 10900 10899 10897 10894 10891 10889 10888 10888 10888 10887 10883 10880 10879 10879 10878 10878 10878 10877 10876 10876 10874 10873 10872 10872 10871 10870 10869 10867 10866 10864 10861 10859 10857
10917 10918 10919 10922 10924 10926 10928 10929 10929 10930 10932 10933 10934 10935 10935 10936 10937 10938 10938 10938 10938 10939 10939 10939 10938 10937 10936 10935 10934 10932 10931 10930 10929 10927 10925 10925 10925 10925 10924 10923 10921 10919 10917 10916 10914 10911 10908 10905 10903 10902 10900 10897 10894 10893 10892 10890 10888 10886 10884 10883 10884 10882 10878 10876 10876 10875 10875 10875 10874 10873 10873 10872 10871 10869 10868 10867 10866 10866 10864 10863 10861 10859 10857 10854 10852
10913 10914 10915 10918 10921 10922 10923 10923 10924 10926 10927 10928 10929 10930 10930 10931 10932 10932 10933 10933 10933 10934 10933 10932 10932 10931 10931 10929 10928 10926 10925 10924 10922 10920 10919 10918 10917 10917 10917 10917 10915 10914 10913 10911 10909 10906 10904 10901 10898 10896 10894 10892 10890 10889 10888 10886 10885 10884 10881 10879 10879 10877 10874 10873 10873 10873 10872 10871 10871 10869 10868 10868 10867 10866 10865 10864 10862 10861 10860 10858 10856 10854 10851 10849 10847
10908 10909 10910 10913 10916 10917 10917 10918 10919 10920 10921 10922 10924 10924 10925 10926 10926 10927 10928 10928 10928 10928 10927 10926 10925 10924 10924 10923 10921 10920 10919 10918 10916 10915 10913 10913 10912 10911 10911 10909 10908 10908 10907 10905 10903 10901 10899 10897 10895 10893 10890 10888 10886 10885 10883 10882 10881 10880 10877 10875 10874 10873 10871 10870 10870 10870 10869 10867 10867 10866 10864 10863 10862 10862 10862 10860 10858 10856 10854 10852 10850 10848 10845 10843 10841
10903 10904 10905 10907 10910 10911 10912 10913 10914 10915 10916 10917 10918 10919 10920 10921 10921 10922 10922 10922 10922 10921 10920 10920 10918 10917 10917 10916 10915 10914 10914 10913 10911 10909 10908 10908 10907 10907 10906 10904 10903 10903 10902 10899 10897 10895 10893 10892 10891 10889 10888 10886 10884 10881 10879 10876 10875 10875 10872 10870 10869 10869 10868 10866 10866 10866 10865 10863 10863 10862 10861 10859 10858 10857 10856 10855 10854 10852 10849 10847 10846 10843 10839 10836 10835
10897 10898 10900 10902 10904 10906 10907 10908 10909 10910 10911 10912 10913 10914 10914 10915 10915 10916 10916 10916 10916 10915 10915 10914 10913 10912 10911 10910 10909 10909 10908 10908 10907 10905 10904 10903 10903 10902 10901 10899 10898 10897 10896 10894 10891 10889 10888 10887 10886 10884 10884 10883 10881 10878 10875 10871 10870 10869 10867 10865 10865 10865 10864 10863 10861 10861 10861 10859 10858 10857 10856 10854 10853 10851 10850 10849 10847 10846 10844 10842 10840 10839 10836 10832 10830
10891 10893 10895 10897 10898 10900 10901 10902 10903 10904 10905 10906 10907 10908 10908 10909 10909 10910 10910 10910 10910 10910 10909 10909 10908 10907 10906 10905 10905 10904 10903 10903 10902 10900 10899 10899 10898 10897 10895 10893 10891 10891 10891 10889 10885 10883 10882 10881 10880 10880 10880 10879 10877 10875 10872 10868 10865 10863 10862 10861 10862 10861 10860 10859 10858 10857 10856 10855 10853 10851 10850 10848 10847 10845 10844 10843 10841 10839 10837 10836 10834 10832 10831 10829 10825
10886 10887 10889 10891 10892 10894 10895 10896 10897 10898 10899 10900 10901 10902 10903 10904 10904 10905 10905 10905 10905 10905 10904 10904 10903 10902 10902 10901 10901 10900 10898 10898 10897 10897 10896 10894 10892 10890 10888 10886 10885 10885 10886 10883 10879 10877 10876 10874 10874 10874 10874 10874 10872 10870 10868 10864 10861 10860 10858 10857 10857 10858 10857 10855 10854 10853 10852 10852 10849 10846 10844 10842 10840 10839 10838 10838 10837 10834 10831 10829 10828 10826 10825 10824 10820
10881 10882 10884 10886 10887 10888 10889 10891 10892 10893 10894 10895 10896 10897 10898 10899 10899 10899 10900 10900 10900 10899 10899 10899 10898 10898 10898 10897 10896 10895 10894 10893 10893 10894 10893 10890 10887 10885 10883 10881 10880 10879 10879 10878 10874 10871 10871 10869 10868 10868 10868 10867 10865 10863 10861 10859 10857 10856 10854 10852 10852 10852 10851 10850 10850 10849 10849 10848 10844 10841 10839 10837 10835 10834 10833 10832 10832 10829 10825 10823 10823 10821 10820 10819 10816
10876 10878 10879 10881 10882 10884 10885 10886 10887 10888 10890 10891 10892 10893 10894 10894 10894 10894 10895 10895 10894 10894 10894 10894 10894 10893 10893 10892 10891 10890 10889 10888 10888 10889 10890 10886 10883 10881 10879 10877 10875 10873 10873 10871 10868 10866 10865 10863 10862 10861 10860 10859 10858 10857 10855 10853 10852 10851 10849 10847 10846 10845 10844 10844 10844 10845 10844 10843 10840 10837 10835 10832 10831 10830 10829 10827 10826 10824 10820 10817 10816 10816 10814 10813 10810
10872 10873 10875 10876 10878 10879 10880 10881 10883 10884 10885 10887 10888 10888 10888 10888 10889 10889 10890 10889 10889 10888 10889 10889 10889 10888 10887 10887 10886 10884 10883 10882 10882 10883 10883 10882 10879 10877 10875 10872 10870 10868 10866 10865 10863 10861 10859 10857 10854 10852 10850 10850 10849 10849 10848 10847 10846 10844 10843 10841 10840 10839 10837 10837 10838 10839 10839 10837 10834 10833 10831 10828 10827 10826 10824 10823 10821 10818 10815 10812 10810 10810 10809 10807 10804
10867 10868 10870 10871 10873 10874 10875 10876 10877 10878 10880 10882 10882 10882 10882 10882 10883 10884 10883 10883 10883 10883 10883 10883 10883 10883 10882 10881 10880 10879 10878 10877 10877 10877 10877 10877 10875 10873 10870 10867 10864 10862 10859 10858 10857 10856 10854 10851 10848 10845 10843 10842 10841 10841 10840 10839 10838 10837 10836 10835 10833 10832 10831 10830 10830 10831 10831 10830 10829 10828 10826 10824 10822 10821 10820 10818 10816 10813 10810 10808 10806 10804 10803 10801 10798
10862 10863 10865 10866 10867 10868 10869 10870 10871 10873 10875 10876 10875 10874 10875 10877 10878 10878 10877 10877 10877 10877 10877 10877 10877 10877 10876 10876 10875 10874 10873 10872 10872 10871 10871 10871 10869 10867 10865 10861 10858 10855 10853 10851 10851 10850 10847 10844 10842 10840 10837 10835 10833 10832 10830 10829 10828 10828 10827 10827 10826 10825 10824 10822 10822 10823 10823 10823 10823 10822 10820 10818 10817 10817 10816 10814 10811 10809 10806 10803 10801 10799 10797 10795 10792
10857 10859 10860 10860 10861 10862 10863 10864 10866 10868 10869 10869 10868 10869 10870 10871 10872 10872 10872 10871 10871 10871 10871 10871 10871 10871 10871 10870 10869 10868 10867 10866 10866 10865 10865 10864 10862 10860 10858 10855 10852 10850 10847 10845 10844 10843 10839 10837 10835 10833 10830 10828 10826 10824 10821 10819 10818 10819 10818 10817 10817 10817 10816 10815 10814 10814 10815 10816 10817 10816 10814 10812 10812 10812 10812 10810 10807 10805 10802 10799 10796 10795 10792 10789 10786
10852 10853 10854 10855 10855 10856 10857 10859 10861 10863 10863 10862 10862 10864 10865 10866 10866 10866 10866 10865 10865 10865 10865 10865 10865 10865 10865 10864 10863 10863 10862 10860 10859 10858 10857 10855 10854 10852 10850 10847 10845 10843 10841 10839 10837 10835 10831 10829 10829 10826 10822 10819 10817 10815 10812 10810 10809 10810 10809 10809 10808 10807 10807 10806 10807 10807 10808 10809 10810 10809 10808 10807 10807 10808 10808 10806 10804 10802 10799 10796 10793 10790 10787 10784 10782
10845 10847 10848 10849 10850 10850 10851 10853 10854 10856 10856 10856 10857 10859 10860 10860 10860 10860 10860 10859 10859 10858 10858 10858 10858 10858 10858 10857 10857 10857 10856 10854 10852 10850 10848 10847 10845 10843 10840 10838 10836 10834 10833 10831 10830 10826 10822 10820 10820 10818 10814 10811 10808 10805 10803 10801 10801 10800 10799 10798 10798 10798 10797 10798 10799 10801 10804 10805 10804 10803 10802 10803 10803 10802 10801 10800 10800 10798 10795 10792 10789 10786 10782 10780 10777
10839 10841 10843 10843 10843 10844 10845 10846 10847 10849 10850 10850 10851 10852 10853 10853 10853 10853 10853 10853 10852 10851 10851 10852 10851 10851 10850 10850 10850 10849 10847 10846 10844 10842 10840 10839 10837 10834 10831 10827 10825 10824 10823 10822 10820 10818 10813 10810 10809 10807 10805 10803 10800 10796 10794 10793 10792 10791 10789 10788 10788 10788 10788 10788 10791 10794 10797 10798 10797 10796 10798 10798 10798 10796 10794 10793 10793 10793 10791 10787 10784 10781 10777 10774 10771
10833 10834 10836 10837 10837 10837 10837 10838 10840 10841 10843 10843 10844 10845 10845 10846 10846 10846 10846 10845 10844 10844 10845 10844 10844 10843 10843 10842 10841 10840 10838 10837 10835 10833 10832 10831 10829 10826 10822 10818 10814 10812 10812 10811 10810 10808 10804 10801 10799 10796 10794 10793 10791 10789 10787 10785 10784 10783 10781 10780 10779 10779 10780 10780 10781 10784 10787 10788 10790 10793 10794 10793 10791 10790 10789 10786 10785 10787 10786 10781 10777 10774 10771 10768 10765
10826 10827 10828 10829 10830 10830 10830 10831 10832 10833 10835 10836 10836 10837 10838 10838 10838 10838 10837 10837 10837 10837 10837 10837 10836 10835 10834 10834 10833 10831 10830 10828 10827 10825 10824 10823 10821 10818 10814 10809 10805 10803 10802 10802 10801 10799 10795 10792 10789 10786 10784 10783 10782 10780 10779 10779 10777 10775 10774 10773 10771 10771 10772 10773 10774 10775 10776 10779 10785 10789 10788 10786 10784 10784 10782 10780 10781 10782 10778 10772 10769 10768 10765 10762 10759
10819 10820 10821 10821 10822 10823 10823 10824 10825 10826 10827 10827 10828 10829 10829 10830 10829 10829 10828 10828 10828 10828 10828 10828 10828 10827 10826 10825 10824 10823 10822 10821 10819 10817 10816 10815 10813 10810 10806 10802 10798 10796 10794 10793 10792 10791 10788 10783 10780 10777 10774 10773 10772 10771 10771 10771 10770 10768 10767 10765 10764 10764 10764 10766 10767 10768 10767 10771 10779 10783 10781 10779 10778 10776 10775 10775 10776 10774 10769 10764 10762 10761 10758 10755 10753
10811 10812 10813 10814 10814 10815 10816 10816 10817 10818 10818 10818 10819 10820 10820 10820 10820 10820 10819 10820 10820 10819 10819 10819 10819 10818 10817 10816 10815 10814 10813 10812 10810 10808 10807 10806 10804 10802 10799 10795 10792 10789 10787 10786 10785 10784 10781 10776 10772 10769 10766 10765 10763 10762 10763 10764 10763 10761 10759 10758 10757 10756 10756 10758 10760 10761 10762 10766 10773 10776 10773 10770 10769 10769 10770 10770 10767 10763 10759 10756 10754 10752 10751 10749 10746
10804 10804 10805 10806 10806 10807 10807 10808 10809 10809 10810 10810 10810 10811 10811 10811 10811 10811 10810 10810 10810 10810 10810 10810 10810 10809 10808 10807 10806 10805 10805 10803 10801 10800 10799 10797 10794 10793 10791 10789 10786 10784 10781 10779 10778 10778 10776 10771 10764 10759 10758 10757 10756 10755 10756 10757 10757 10755 10752 10751 10748 10746 10746 10748 10751 10754 10757 10761 10765 10768 10767 10765 10764 10765 10766 10764 10758 10753 10751 10748 10746 10745 10744 10742 10739
10796 10797 10797 10798 10798 10798 10799 10800 10800 10801 10801 10801 10801 10802 10802 10802 10802 10802 10801 10801 10801 10801 10801 10801 10801 10800 10799 10798 10797 10796 10796 10794 10791 10791 10790 10787 10786 10785 10783 10782 10780 10778 10775 10772 10771 10770 10769 10766 10758 10752 10749 10749 10749 10749 10750 10751 10751 10749 10746 10745 10743 10741 10739 10740 10742 10745 10749 10753 10757 10760 10760 10759 10761 10762 10761 10755 10749 10745 10743 10742 10740 10739 10737 10735 10733
10787 10788 10788 10789 10790 10790 10791 10792 10792 10793 10793 10793 10793 10793 10793 10793 10794 10793 10792 10792 10792 10792 10793 10792 10791 10790 10790 10788 10787 10786 10785 10784 10782 10781 10781 10778 10777 10776 10775 10774 10772 10770 10767 10765 10763 10761 10760 10759 10754 10748 10743 10741 10742 10743 10744 10744 10745 10743 10741 10741 10742 10740 10738 10737 10738 10740 10743 10748 10751 10752 10751 10753 10757 10758 10754 10746 10741 10738 10736 10735 10734 10732 10730 10728 10727
10779 10780 10780 10781 10781 10782 10783 10784 10784 10785 10785 10784 10783 10784 10784 10784 10784 10783 10782 10783 10783 10783 10783 10782 10781 10779 10778 10778 10777 10776 10775 10774 10773 10772 10772 10770 10768 10767 10766 10765 10764 10762 10759 10756 10754 10752 10750 10749 10746 10743 10739 10735 10735 10737 10739 10739 10738 10737 10737 10738 10739 10738 10736 10735 10736 10738 10742 10745 10747 10746 10746 10749 10752 10751 10745 10738 10734 10731 10729 10727 10726 10724 10723 10722 10720
10772 10772 10773 10773 10773 10774 10775 10776 10776 10776 10775 10774 10774 10774 10774 10774 10774 10773 10773 10773 10773 10773 10772 10772 10771 10769 10767 10767 10767 10766 10765 10765 10764 10763 10762 10761 10759 10758 10757 10756 10755 10753 10750 10747 10745 10743 10741 10738 10736 10734 10732 10730 10729 10730 10733 10734 10733 10732 10732 10734 10735 10734 10732 10732 10732 10733 10735 10738 10739 10740 10741 10742 10742 10740 10735 10730 10726 10724 10722 10720 10718 10717 10716 10714 10712
10763 10764 10764 10764 10765 10766 10767 10767 10766 10766 10765 10764 10764 10764 10763 10764 10764 10764 10763 10763 10763 10763 10762 10761 10761 10759 10757 10756 10757 10757 10756 10755 10754 10753 10752 10751 10750 10749 10748 10747 10746 10744 10741 10738 10736 10733 10732 10729 10726 10724 10723 10722 10722 10723 10726 10727 10728 10728 10729 10730 10729 10727 10726 10727 10727 10728 10729 10731 10732 10733 10732 10732 10730 10729 10726 10722 10719 10717 10715 10712 10710 10709 10708 10706 10704
10754 10754 10754 10755 10756 10757 10758 10757 10756 10756 10755 10754 10752 10752 10752 10753 10753 10753 10753 10753 10752 10751 10751 10751 10750 10749 10748 10747 10746 10746 10746 10745 10744 10744 10742 10741 10740 10739 10738 10737 10736 10734 10732 10729 10726 10724 10722 10720 10718 10716 10714 10714 10714 10715 10718 10720 10722 10722 10723 10724 10722 10721 10721 10722 10722 10722 10722 10722 10721 10721 10721 10720 10719 10718 10715 10713 10710 10708 10706 10703 10702 10700 10699 10698 10696
10745 10744 10744 10745 10747 10748 10748 10747 10746 10745 10744 10742 10741 10741 10741 10742 10741 10742 10742 10742 10741 10741 10741 10740 10739 10737 10737 10737 10736 10735 10735 10735 10734 10733 10732 10730 10729 10729 10729 10728 10726 10725 10722 10719 10717 10715 10714 10712 10710 10708 10706 10705 10706 10707 10709 10712 10714 10715 10716 10716 10714 10713 10714 10715 10716 10715 10714 10712 10711 10710 10709 10708 10707 10706 10704 10701 10700 10699 10697 10695 10693 10692 10690 10688 10687
10734 10734 10735 10737 10739 10739 10737 10736 10735 10734 10733 10732 10731 10731 10731 10730 10730 10730 10731 10730 10730 10730 10729 10729 10728 10727 10726 10726 10726 10725 10725 10725 10723 10722 10721 10719 10718 10717 10717 10717 10716 10715 10714 10711 10709 10707 10705 10704 10702 10700 10699 10698 10698 10699 10701 10703 10705 10706 10708 10708 10706 10704 10704 10705 10706 10707 10706 10705 10703 10701 10699 10698 10697 10695 10693 10692 10692 10691 10690 10687 10685 10683 10681 10679 10677
10724 10725 10727 10728 10729 10727 10725 10725 10726 10725 10724 10722 10721 10720 10720 10719 10719 10719 10718 10718 10719 10719 10718 10717 10717 10717 10716 10716 10715 10715 10715 10715 10714 10712 10711 10709 10708 10707 10706 10705 10704 10704 10704 10703 10701 10700 10698 10695 10693 10692 10691 10691 10690 10690 10692 10694 10695 10696 10698 10699 10698 10696 10694 10694 10695 10696 10697 10697 10695 10693 10691 10690 10689 10687 10685 10684 10683 10682 10680 10679 10676 10674 10672 10670 10668
10714 10716 10717 10717 10717 10715 10715 10716 10717 10716 10714 10711 10710 10709 10709 10708 10708 10707 10707 10707 10708 10708 10707 10707 10708 10708 10707 10706 10705 10705 10705 10705 10704 10702 10701 10699 10697 10696 10695 10694 10693 10693 10693 10693 10693 10692 10691 10688 10686 10684 10683 10683 10682 10682 10682 10683 10684 10685 10687 10688 10688 10686 10684 10683 10683 10684 10685 10686 10686 10685 10684 10683 10681 10679 10676 10675 10673 10671 10670 10669 10667 10664 10662 10660 10658
10704 10705 10705 10705 10705 10704 10705 10706 10706 10705 10703 10700 10698 10697 10697 10696 10696 10697 10697 10697 10697 10697 10697 10697 10697 10697 10697 10696 10695 10695 10695 10694 10692 10691 10690 10688 10685 10684 10683 10682 10682 10681 10681 10682 10683 10683 10682 10681 10679 10677 10675 10673 10672 10671 10672 10673 10673 10673 10675 10677 10677 10676 10674 10672 10671 10671 10672 10673 10675 10675 10674 10673 10671 10669 10667 10666 10664 10661 10659 10658 10656 10654 10651 10650 10648
10692 10693 10693 10693 10693 10692 10693 10694 10694 10694 10692 10689 10687 10685 10684 10683 10683 10685 10686 10686 10686 10686 10686 10686 10686 10686 10686 10685 10684 10683 10683 10682 10680 10679 10678 10676 10674 10673 10672 10671 10671 10670 10670 10671 10672 10672 10672 10673 10672 10670 10668 10665 10664 10663 10663 10663 10663 10663 10663 10664 10665 10664 10662 10661 10660 10659 10658 10658 10659 10660 10660 10660 10659 10657 10656 10655 10653 10650 10648 10647 10645 10643 10640 10638 10636
10680 10681 10681 10682 10682 10682 10682 10683 10683 10683 10682 10680 10676 10674 10673 10672 10672 10673 10673 10674 10674 10674 10674 10673 10673 10673 10673 10673 10672 10671 10671 10670 10669 10668 10667 10665 10664 10662 10660 10660 10659 10659 10659 10659 10660 10660 10661 10662 10663 10662 10659 10656 10655 10656 10655 10654 10653 10653 10653 10653 10653 10652 10651 10649 10648 10647 10646 10645 10644 10644 10644 10644 10644 10643 10643 10641 10639 10637 10636 10635 10632 10630 10628 10626 10624